Regional Weather Roundup
Issued by NWS

Home | Current Version | Previous Version | Text Only | Print | Product List | Glossary On
Versions: 1 2 3 4 5 6 7 8 9 10 11 12 13 14 15 16 17 18 19 20 21 22 23 24 25 26 27 28 29 30 31 32 33 34 35 36 37 38 39 40 41 42 43 44 45 46 47 48 49 50
000
ASUS43 KOAX 151702
RWRNE

WEATHER ROUNDUP FOR NEBRASKA
NATIONAL WEATHER SERVICE OMAHA NE
1200 PM CDT MON SEP 15 2014

NOTES: SATELLITE DATA IS BEING USED TO AUGMENT CLOUD COVER ABOVE
       12000 FEET.
       "FAIR" INDICATES FEW OR NO CLOUDS BELOW 12,000 FEET WITH NO
       SIGNIFICANT WEATHER AND/OR OBSTRUCTIONS TO VISIBILITY.

  * THESE STATIONS DO NOT REPORT WEATHER SUCH AS RAIN...SNOW OR FOG.

NEZ001>004-019>022-054>056-151800-
NEBRASKA PANHANDLE

CITY           SKY/WX    TMP DP  RH WIND       PRES   REMARKS
SCOTTSBLUFF    SUNNY     56  44  64 SE6       30.33F
ALLIANCE       SUNNY     55  41  59 S7        30.32F
CHADRON        SUNNY     57  42  57 S7        30.31S
KIMBALL        SUNNY     57  43  59 CALM      30.32F
SIDNEY         SUNNY     56  43  61 VRB3      30.35S
$$

NEZ057>060-069>072-079>082-151800-
SOUTHWEST NEBRASKA

CITY           SKY/WX    TMP DP  RH WIND       PRES   REMARKS
NORTH PLATTE   SUNNY     60  40  47 NE13      30.31S
IMPERIAL       SUNNY     58  41  53 E8G16     30.33S
LEXINGTON      SUNNY     60  47  61 NE8G17    30.30R
MCCOOK         MOSUNNY   61  47  59 NE17      30.31R
OGALLALA       SUNNY     59  43  55 NE7       30.33S
$$

NEZ005>010-023>029-035>040-094-151800-
NORTH CENTRAL NEBRASKA

CITY           SKY/WX    TMP DP  RH WIND       PRES   REMARKS
VALENTINE      SUNNY     59  35  40 NE7       30.32R
AINSWORTH      SUNNY     56  39  51 N9        30.31F
BROKEN BOW     SUNNY     60  40  47 NE10G20   30.29R
O`NEILL        SUNNY     58  41  52 N17       30.30S
ORD            SUNNY     60  42  51 NE14G20   30.28R
THEDFORD       SUNNY     60  40  48 NE3G16    30.32S
$$

NEZ041-046>049-061>064-073>077-083>087-151800-
SOUTH CENTRAL NEBRASKA

CITY           SKY/WX    TMP DP  RH WIND       PRES   REMARKS
GRAND ISLAND   SUNNY     62  44  51 N17G24    30.27R
AURORA         MOSUNNY   61  46  58 N10G17    30.25S
HASTINGS       SUNNY     61  47  59 N17G23    30.26R
HEBRON         CLOUDY    59  48  67 N14       30.23R
HOLDREGE       SUNNY     60  46  60 N16       30.28R
KEARNEY *      MOSUNNY   61  46  59 N14G21    30.28S
YORK           SUNNY     59  50  72 NE15G23   30.25R
$$

NEZ011>018-030>034-042>045-151800-
NORTHEAST NEBRASKA

CITY           SKY/WX    TMP DP  RH WIND       PRES   REMARKS
NORFOLK        MOSUNNY   58  44  60 N21       30.26R
ALBION         MOSUNNY   58  44  58 N12G18    30.27S
BLAIR          CLOUDY    59  50  72 N12       30.21R
COLUMBUS *     SUNNY     61  45  55 NE15G22   30.26R
FREMONT        PTSUNNY   60  49  66 N8G16     30.23R
TEKAMAH        MOSUNNY   62  47  57 N20       30.23R
WAYNE          MOSUNNY   58  46  62 N13G21    30.27R
$$

NEZ050>053-065>068-078-088>093-151800-
SOUTHEAST NEBRASKA

CITY           SKY/WX    TMP DP  RH WIND       PRES   REMARKS
LINCOLN        PTSUNNY   64  51  62 N17       30.23R
OMAHA EPPLEY   PTSUNNY   61  49  64 N14G23    30.21R
BEATRICE       CLOUDY    62  51  66 N13G22    30.20R
FALLS CITY     CLOUDY    62  58  86 N17G24    30.14R
NEBRASKA CITY  CLOUDY    59  48  68 N15G21    30.19R
PLATTSMOUTH    PTSUNNY   58  50  73 N15G22    30.19S
$$

NEZ044-045-051>053-067-151800-
OMAHA AREA

CITY           SKY/WX    TMP DP  RH WIND       PRES   REMARKS
OMAHA EPPLEY   PTSUNNY   61  49  64 N14G23    30.21R
BLAIR          CLOUDY    59  50  72 N12       30.21R
FREMONT        PTSUNNY   60  49  66 N8G16     30.23R
MILLARD        PTSUNNY   60  51  71 N9        30.21
OFFUTT AFB     MOSUNNY   61  55  82 N13       30.20R
PLATTSMOUTH    PTSUNNY   58  50  73 N15G22    30.19S
WAHOO          PTSUNNY   62  48  60 N15G22    30.22R
$$


USA.gov is the U.S. government's official web portal to all federal, state and local government web resources and services.